Theta_e
330 333 335 333 330 328 323 323 302 310 307 299 300 302 302 311 313 309 311 309 308 313 312 315 313 314 311 309 311 309 306 308 306 299 297 303 310 312 314 315 316 318 317 318 318 318 318 319 319 318 318 318 318 318 318 318 318 318 318 318 318 318 318 318 318 317 318 317 317 317 317 316 316 316 316 316 316 316 318 318 319 320 320 319 318 319 318 319 320 320 320 319 319 318 316 315 315
321 325 327 327 325 328 314 320 307 303 303 299 301 304 307 310 308 306 305 306 308 308 311 312 311 311 312 314 309 312 307 304 305 301 304 310 310 310 313 315 316 317 317 317 317 317 316 316 318 318 318 318 318 318 318 317 317 317 317 318 317 318 318 318 318 317 317 317 316 316 316 317 316 315 315 315 315 316 318 318 319 319 319 318 319 318 318 318 319 319 318 318 318 317 316 314 315
319 321 322 325 324 320 317 316 300 300 297 295 301 308 311 306 305 306 307 307 309 310 311 311 312 315 313 313 310 308 302 308 303 304 304 308 304 307 313 316 316 318 317 317 317 316 315 315 317 317 318 318 317 317 317 317 317 317 317 318 318 318 319 318 318 318 317 317 317 316 316 316 315 316 315 315 316 317 317 317 318 318 318 318 317 318 317 317 318 318 317 317 317 318 316 314 314
321 320 320 324 318 322 313 310 304 300 297 298 299 307 308 307 303 304 309 311 307 309 312 309 309 315 310 306 308 313 305 304 304 302 302 304 306 309 314 316 317 317 317 317 316 315 314 316 317 318 317 317 316 316 316 316 316 316 317 317 318 318 318 318 318 317 317 317 316 316 315 315 315 315 315 316 316 316 317 316 317 317 317 317 317 316 316 316 316 317 317 316 316 317 316 314 314
319 323 323 320 319 311 311 306 304 303 297 301 300 306 305 305 306 306 305 308 308 309 312 311 308 310 309 310 310 303 300 304 305 306 305 308 310 312 314 316 316 316 316 316 316 315 313 316 317 317 316 316 316 316 316 316 316 316 316 317 316 317 316 316 315 315 315 315 315 315 314 314 314 314 315 315 315 316 316 316 315 315 316 316 316 316 316 316 315 316 316 315 316 316 316 314 313
321 321 331 320 313 319 311 302 301 301 304 307 303 304 307 307 307 307 306 307 310 309 310 311 308 308 308 304 305 298 302 301 306 305 306 306 311 314 315 317 314 315 315 315 315 313 312 317 317 317 316 316 316 316 316 315 315 315 316 315 315 315 314 314 314 314 314 314 314 314 313 312 312 312 313 313 313 314 314 314 315 315 316 315 315 315 315 315 315 316 315 315 315 315 315 314 314
323 318 320 319 315 316 302 301 301 302 305 308 306 306 305 306 306 307 306 303 310 310 311 311 311 307 304 301 301 301 303 306 304 306 308 310 313 315 315 314 314 312 313 313 313 312 312 316 317 316 316 316 316 316 315 315 315 314 315 315 314 314 314 313 313 313 313 313 313 313 312 311 311 312 312 312 313 312 312 313 314 314 315 315 315 315 315 314 314 314 315 315 315 314 315 314 314
322 312 315 307 307 307 301 301 302 304 305 308 310 308 308 308 313 312 308 304 302 303 305 311 309 305 299 306 296 300 303 306 306 309 310 312 313 314 314 314 311 310 311 312 312 312 315 316 316 317 316 316 316 316 316 315 315 315 314 314 314 313 312 312 312 312 312 312 312 312 312 311 311 311 312 312 312 312 311 312 312 312 313 312 312 313 313 312 312 312 313 314 314 315 315 313 312
316 312 323 311 301 307 301 300 301 306 306 308 308 307 311 312 309 310 304 306 305 305 303 305 307 301 302 301 296 300 301 306 307 310 311 312 312 312 313 311 308 308 311 312 312 312 312 316 316 316 316 316 316 315 315 315 315 314 314 313 313 312 312 311 310 310 310 310 310 310 310 310 310 309 309 309 310 311 311 311 311 310 310 311 311 311 311 311 312 312 312 313 313 315 314 312 311
314 316 308 307 307 297 299 299 300 303 304 306 306 305 306 311 309 311 306 303 302 302 304 306 305 300 301 297 297 299 299 306 307 308 310 311 311 311 311 309 307 310 310 310 310 311 312 315 315 316 316 315 315 315 314 314 313 312 311 311 311 310 310 310 310 309 309 308 308 308 308 308 308 308 307 307 307 309 310 310 311 310 310 310 309 310 311 310 310 311 311 312 313 313 311 308 306
305 313 316 302 298 295 295 296 299 301 303 305 304 304 304 304 304 302 306 303 305 302 301 304 301 300 301 297 296 301 303 306 306 306 309 309 310 310 308 306 307 311 309 309 310 311 311 311 314 315 314 315 314 312 312 311 311 311 311 311 310 310 309 309 309 308 307 307 306 306 306 306 306 306 306 306 305 306 307 308 309 309 309 308 308 308 309 310 310 309 309 310 311 309 306 305 303
303 305 308 297 294 294 296 296 298 300 302 301 299 302 302 303 306 302 304 304 302 304 301 304 299 301 301 298 295 299 301 304 305 307 308 309 308 307 304 303 307 308 309 309 309 310 310 310 310 312 314 313 311 311 310 310 310 309 309 308 308 309 309 309 309 308 307 306 305 305 305 304 304 304 305 304 304 304 304 305 306 307 307 307 307 306 307 308 308 308 308 308 307 306 304 303 302
305 308 303 298 295 295 296 296 297 299 298 298 299 299 303 302 301 303 302 302 305 301 303 303 302 301 296 295 296 299 300 303 306 307 308 307 306 303 300 302 306 308 309 309 308 309 309 309 309 308 310 311 310 309 309 309 309 309 309 308 308 308 308 308 308 307 308 307 305 304 303 302 302 302 302 303 302 301 302 303 304 305 306 306 306 305 304 305 306 306 305 306 305 304 303 302 301
307 310 305 297 302 298 296 296 296 294 294 297 300 301 302 303 303 302 301 300 300 300 303 304 302 301 296 295 295 296 298 303 306 307 307 306 304 300 299 302 306 307 307 308 307 307 307 308 308 308 307 307 306 308 308 308 308 308 308 307 307 307 308 308 308 308 307 306 305 304 303 302 301 301 300 301 301 300 300 301 302 303 304 304 304 304 303 303 304 304 304 304 304 303 302 301 300
305 307 303 301 296 296 297 293 295 295 292 297 298 303 302 303 302 303 302 301 298 303 304 305 302 300 291 295 293 296 298 303 305 306 305 303 300 298 298 301 304 305 306 307 306 307 307 307 308 307 306 306 305 304 303 305 307 308 308 307 307 307 307 306 304 305 305 305 304 304 304 303 303 302 301 300 300 300 299 299 300 302 303 303 303 303 302 302 302 303 302 302 302 302 301 300 299
312 305 303 297 292 293 296 295 298 296 292 297 298 303 302 302 305 305 301 302 301 304 305 298 303 296 297 295 296 297 300 303 305 305 303 300 299 299 298 298 300 302 304 306 306 306 307 307 306 305 306 306 305 306 305 305 308 308 307 306 306 306 306 303 303 302 304 304 305 305 305 304 305 303 304 300 300 300 299 298 299 301 302 302 302 301 301 301 301 301 301 301 301 300 300 299 299
310 309 296 295 291 293 295 294 297 291 295 298 301 298 297 299 306 303 305 305 301 301 302 302 298 299 295 297 298 299 301 304 305 303 301 298 297 295 295 295 295 297 302 302 303 303 305 305 305 305 305 305 306 306 306 306 307 309 308 308 307 305 305 303 302 303 304 306 306 307 306 303 301 302 302 299 301 299 300 299 298 299 301 301 301 300 300 300 300 300 300 300 300 299 298 299 299
309 298 294 291 293 293 296 294 294 296 294 295 297 297 296 296 302 301 303 301 302 301 300 299 296 295 297 298 299 299 301 302 302 301 299 297 296 293 292 293 293 293 294 296 300 301 303 303 304 304 304 304 303 304 304 306 305 305 303 303 302 304 305 301 300 299 304 298 307 304 299 298 297 297 298 302 296 296 299 300 300 299 300 300 300 299 299 300 300 300 300 300 299 299 298 294 294
300 296 295 291 295 297 300 296 296 294 294 296 296 297 296 296 297 298 294 297 298 298 299 299 293 294 295 296 297 298 299 300 300 300 299 297 295 293 292 293 293 293 293 294 295 297 299 302 302 303 302 301 301 300 302 303 300 300 301 300 301 304 302 299 299 299 299 298 298 298 298 297 297 297 299 300 298 302 300 301 301 301 300 300 299 299 299 300 300 300 300 299 299 299 295 292 290
299 297 292 293 299 296 298 298 296 297 296 295 295 296 295 298 297 298 297 294 293 290 289 292 294 292 293 295 296 297 298 298 299 299 298 298 296 294 294 293 293 292 293 293 294 296 296 297 298 299 299 298 297 297 298 297 296 295 295 296 295 296 297 299 298 299 298 297 298 296 295 296 297 297 308 303 302 297 298 303 302 302 301 300 298 300 300 299 298 300 299 298 300 298 291 290 289
298 295 292 295 296 294 296 297 296 296 296 295 295 296 296 296 297 296 294 293 290 289 291 291 292 294 294 295 296 297 297 297 298 298 297 297 297 296 295 294 293 294 294 295 295 295 294 294 294 294 295 295 295 294 295 294 294 294 295 295 296 296 296 296 296 297 296 296 296 295 296 297 297 295 296 296 295 295 294 294 296 295 294 293 300 292 293 294 294 292 292 296 290 291 290 289 289
301 296 297 297 296 295 295 295 294 294 295 295 296 293 293 297 294 292 291 287 285 288 291 293 294 294 295 295 296 297 296 296 296 296 296 296 295 295 295 295 296 295 296 293 293 293 293 294 295 294 296 296 295 294 294 296 296 294 294 295 295 296 297 295 295 295 294 294 294 294 294 294 294 294 294 293 294 293 292 292 292 292 292 292 293 292 291 291 291 291 291 291 290 289 290 289 289
292 295 296 297 297 295 296 295 293 293 295 294 293 293 295 294 291 291 290 288 290 293 293 294 295 296 296 297 296 296 296 296 296 295 293 292 293 294 294 294 293 292 293 293 293 293 294 294 295 295 295 295 295 295 295 295 294 294 294 295 294 294 294 294 293 293 294 294 293 293 293 292 292 291 292 291 291 292 291 291 290 291 291 291 292 290 291 290 290 290 289 289 289 289 289 289 289
296 292 295 296 297 296 295 293 292 292 293 292 293 295 293 293 287 291 289 291 292 293 294 294 295 296 296 295 294 293 293 292 292 292 292 292 292 293 293 293 294 293 293 292 293 293 294 294 295 295 294 295 294 295 295 294 294 295 295 295 294 296 294 293 292 293 293 292 294 293 294 291 290 290 290 290 290 291 291 292 291 290 290 289 291 290 290 289 289 289 289 289 289 289 289 289 289
296 295 296 295 296 295 294 292 292 292 293 293 293 292 291 291 290 291 289 290 292 293 293 293 293 294 294 294 293 293 292 292 292 292 293 293 293 294 293 293 293 292 291 291 292 292 292 294 294 294 294 294 294 294 294 293 294 294 294 293 293 298 292 292 292 292 292 292 293 293 293 291 290 290 290 290 290 290 290 290 290 289 290 290 290 289 289 289 288 288 288 288 288 288 287 288 288
298 296 297 297 297 295 293 293 293 292 293 293 291 290 292 292 293 289 290 291 292 292 292 292 292 291 291 291 292 292 292 292 292 291 291 292 291 290 290 290 291 290 290 290 290 290 290 290 291 292 293 294 294 293 293 293 293 292 293 293 293 294 292 292 292 291 291 291 291 292 292 291 290 289 289 289 289 289 289 290 290 289 289 290 289 290 289 288 288 288 288 288 288 288 288 288 288
299 298 296 296 295 294 294 295 293 293 293 293 291 290 290 291 291 284 291 291 291 291 290 290 290 288 288 288 289 289 288 288 289 290 290 290 290 289 288 288 287 287 288 288 288 288 289 289 289 289 290 292 291 291 291 291 291 291 292 291 291 291 291 291 291 290 290 290 290 291 290 291 290 289 289 289 289 289 289 289 289 289 288 289 290 289 290 289 288 288 289 288 288 288 288 288 287
297 295 295 295 295 295 294 294 293 292 291 293 292 289 290 290 289 285 289 291 291 289 288 288 287 287 287 287 287 287 287 287 287 287 286 286 286 287 286 286 285 286 285 286 287 287 288 288 288 289 289 290 289 289 290 289 289 289 290 290 290 290 291 289 288 289 289 288 290 289 288 289 290 288 288 288 288 287 287 288 289 289 289 289 290 289 289 289 289 289 289 289 289 288 288 287 288
297 297 293 295 294 292 294 293 293 295 290 293 293 289 285 286 284 288 290 291 290 289 287 287 286 286 286 285 285 285 285 286 285 285 284 285 285 286 285 286 286 285 286 286 286 287 286 287 287 288 288 288 288 288 288 288 288 289 288 288 289 291 288 288 287 287 287 288 288 288 287 287 288 287 286 286 287 286 286 287 288 289 288 289 289 289 289 289 288 288 288 289 288 288 287 287 289
301 294 293 293 293 290 292 293 293 292 291 293 292 282 281 283 286 289 291 290 289 287 286 286 285 285 284 284 283 284 284 284 284 284 284 284 284 285 284 285 286 285 285 286 286 285 286 287 287 287 287 287 288 287 287 286 287 287 287 287 288 288 287 286 287 286 287 287 287 287 285 286 286 285 284 284 284 284 285 285 286 286 287 287 287 287 287 287 287 287 287 287 289 288 286 286 286
291 299 298 289 288 285 292 292 293 290 292 292 292 282 281 283 286 289 290 290 288 285 285 285 284 284 283 283 283 282 283 283 283 284 284 285 285 285 285 285 285 285 285 285 284 284 285 285 286 285 286 285 286 286 285 286 286 286 286 286 286 287 286 285 285 285 285 285 286 285 284 284 284 282 282 282 283 283 283 283 284 284 286 286 285 286 286 286 286 286 286 286 286 286 286 286 286
294 292 287 290 285 287 290 293 292 289 291 293 292 280 280 283 285 289 290 289 288 285 285 284 284 283 283 282 282 282 282 283 284 284 285 285 285 285 285 284 285 284 284 284 284 284 284 284 284 284 284 284 284 286 285 285 285 285 285 287 284 285 284 284 284 284 283 283 284 283 282 282 282 280 280 281 281 281 281 282 282 283 284 284 284 285 285 284 285 286 286 286 284 284 285 285 285
294 289 284 284 286 285 287 291 293 294 293 292 292 282 283 282 286 288 289 288 287 285 284 284 283 283 283 282 282 282 282 282 283 283 284 284 285 285 285 284 284 284 284 283 283 283 283 283 283 282 282 283 283 284 284 284 284 284 284 284 284 283 283 283 282 283 282 282 283 282 281 281 280 279 280 280 280 280 280 281 282 283 284 283 283 283 283 284 284 285 284 285 284 283 283 283 284
286 290 284 289 285 287 284 290 292 294 292 285 287 281 281 283 285 287 288 288 286 284 283 283 282 282 282 282 281 281 281 281 281 282 283 284 284 285 285 286 284 284 284 284 283 283 282 282 282 283 282 282 282 283 283 283 283 283 282 282 284 282 282 282 281 281 280 280 279 280 280 279 280 279 279 280 279 280 281 281 282 282 282 281 281 281 281 283 283 282 282 282 283 282 281 282 282
283 284 283 284 286 287 287 286 289 293 291 285 284 282 282 283 285 285 286 287 285 283 283 282 282 282 281 281 281 281 281 281 281 283 284 284 284 284 284 284 284 284 283 283 282 282 282 281 282 281 281 281 281 281 282 282 282 282 282 281 280 281 280 281 280 279 279 278 278 278 280 279 279 278 278 280 279 280 280 280 279 280 280 279 279 279 279 280 281 281 280 280 281 280 280 281 282
287 287 285 286 282 283 285 288 293 291 288 284 283 280 281 282 283 285 285 286 284 283 283 282 282 282 281 281 281 281 281 281 283 283 284 284 284 284 284 284 283 283 283 282 282 281 281 281 281 280 280 280 280 280 280 279 280 280 279 279 278 279 279 280 279 278 278 277 278 277 278 278 278 278 278 279 279 279 279 278 278 279 278 278 277 277 277 277 278 278 278 278 278 279 280 280 280
290 290 288 286 286 288 289 289 292 292 286 283 282 281 281 281 283 284 285 285 284 283 282 281 281 281 281 281 281 281 281 281 283 284 284 284 284 284 284 283 282 282 282 282 281 281 281 280 280 278 279 279 279 278 278 278 277 278 279 278 277 278 278 279 278 278 277 277 277 277 277 277 277 277 278 278 278 278 278 277 277 277 277 277 276 276 276 277 278 278 277 277 276 275 275 278 278
291 288 286 284 286 282 289 288 291 293 286 281 282 280 280 281 282 283 284 284 282 282 281 281 281 281 281 281 281 281 281 283 284 283 283 283 283 283 283 282 283 280 281 281 280 280 280 280 279 279 278 278 278 278 277 278 277 277 277 276 276 277 276 276 276 276 276 276 276 276 276 276 276 276 277 277 277 276 276 276 276 276 276 275 276 276 276 277 276 276 275 273 274 273 272 275 276
290 285 283 282 283 287 291 289 291 293 288 281 282 279 279 280 282 283 282 282 283 283 283 282 281 281 281 281 281 281 281 281 282 282 283 283 283 283 282 281 281 281 280 280 280 280 279 279 278 278 278 277 277 278 277 276 278 278 278 277 277 276 277 278 277 278 277 276 276 276 276 276 276 276 276 277 276 276 275 275 274 275 275 275 274 274 274 274 274 274 274 272 271 273 273 274 274
285 283 281 280 285 281 278 289 290 290 286 281 281 278 279 281 282 282 282 282 282 283 283 283 283 282 281 281 282 281 281 281 281 281 281 282 282 281 281 280 280 280 279 279 279 279 279 279 278 278 278 278 277 277 278 277 278 279 279 278 277 277 276 278 277 277 276 275 275 276 275 276 276 275 276 276 276 275 274 274 274 273 273 274 273 272 272 272 273 273 273 272 272 269 270 271 274
285 286 282 281 282 283 283 283 288 290 288 285 281 278 277 279 278 279 282 283 283 283 283 282 282 283 283 283 283 282 281 281 281 281 282 281 281 280 280 280 279 279 278 278 278 278 279 278 278 278 278 277 277 277 277 277 277 277 277 277 277 277 277 276 274 273 274 275 275 274 274 275 276 276 276 276 276 274 274 274 274 273 272 273 273 271 271 272 272 273 272 271 271 270 269 270 271
284 285 287 285 284 283 284 286 285 282 279 284 283 274 274 277 278 278 280 281 281 282 281 281 281 282 282 281 281 282 283 282 281 281 281 281 281 280 280 279 279 278 277 277 278 278 278 277 278 277 277 277 276 276 276 276 275 275 274 274 273 273 272 273 272 271 272 272 272 273 274 274 275 275 275 276 274 275 273 274 273 272 272 272 272 271 271 271 271 271 271 271 270 270 270 269 269
281 283 287 286 284 284 284 284 282 277 275 282 287 276 271 277 276 278 279 279 279 281 280 281 281 281 281 281 281 281 282 282 282 282 282 281 281 280 279 278 278 277 277 277 277 277 278 278 278 278 277 276 277 276 276 276 274 274 274 273 273 272 271 272 272 272 272 272 272 272 272 273 274 274 274 274 274 274 273 273 272 272 272 271 272 271 270 270 270 271 272 271 270 271 270 268 268
280 286 287 285 284 283 283 282 281 279 284 286 286 280 273 272 276 279 279 279 278 279 279 280 280 281 281 281 282 282 282 282 282 282 282 281 280 279 278 278 277 276 277 277 276 276 276 276 276 277 276 277 275 275 275 274 273 272 272 272 273 271 271 270 271 271 272 272 271 271 271 271 272 273 273 273 273 273 273 271 271 271 270 270 271 270 270 270 270 270 271 271 270 270 269 268 267
284 288 289 284 284 284 284 282 280 281 279 276 278 282 274 272 276 279 279 277 277 277 278 278 280 280 281 281 281 281 282 282 282 282 281 281 280 279 278 277 277 277 277 276 276 276 276 276 276 276 275 275 274 274 274 272 273 273 272 272 271 272 272 272 272 272 271 271 269 270 270 270 271 271 272 272 272 272 273 271 270 269 269 269 271 270 269 269 269 269 269 269 269 269 269 269 269
287 288 288 287 286 284 284 279 280 280 277 273 276 279 272 272 276 277 278 277 276 276 277 279 280 281 281 281 281 282 282 282 283 283 282 282 282 280 279 278 277 276 276 278 276 276 275 275 276 276 276 275 274 273 273 272 272 273 271 271 270 270 270 270 270 269 269 269 269 269 269 269 270 270 271 271 271 271 271 271 270 269 268 269 271 269 268 268 268 268 268 268 269 268 268 268 268
290 288 287 285 283 281 281 280 279 278 274 275 279 279 277 269 274 275 275 275 275 276 278 278 280 281 282 283 283 283 283 283 282 282 282 283 284 281 279 277 277 276 276 276 276 275 275 275 274 273 274 274 273 272 271 271 271 271 271 271 269 269 269 269 268 268 269 268 268 269 269 269 269 269 270 271 271 270 270 271 269 269 269 270 269 268 268 268 268 268 268 268 268 267 268 268 268
288 283 281 281 280 280 279 278 279 273 271 275 277 278 279 268 273 275 277 277 277 277 276 278 279 280 281 282 282 282 283 283 283 283 283 284 283 282 278 277 276 276 275 275 274 275 274 273 272 272 273 273 272 272 271 271 271 270 271 270 269 268 268 268 268 268 268 267 268 268 268 268 268 269 269 269 270 270 270 268 269 268 268 268 267 268 268 268 268 268 267 267 267 267 268 268 267
285 281 280 275 272 274 269 274 270 270 270 275 276 279 274 274 274 276 277 277 278 279 280 280 280 279 280 281 282 283 283 283 283 283 283 283 281 280 279 276 276 275 274 274 274 274 273 273 272 272 272 272 271 271 270 270 270 270 270 270 269 269 268 268 268 267 268 267 267 267 267 267 268 267 268 268 269 269 269 268 268 267 267 267 268 267 267 267 267 267 267 267 267 266 267 267 266
282 278 276 273 268 267 264 268 271 270 275 277 276 280 274 274 274 277 277 279 279 279 280 280 280 280 281 281 282 283 284 283 282 283 282 281 280 280 278 276 275 274 274 274 274 273 273 273 272 271 271 271 271 270 270 269 269 269 270 270 269 268 267 268 267 267 268 267 267 267 267 267 267 267 267 267 268 269 268 268 268 267 267 267 267 267 267 267 267 266 266 266 266 266 267 266 266
279 282 277 274 271 267 264 268 264 266 269 275 280 271 269 270 273 277 278 279 280 279 279 280 280 281 281 282 282 282 283 282 282 281 281 281 280 280 277 275 275 274 274 274 273 273 272 272 271 271 270 271 270 270 269 269 269 269 269 270 269 268 267 267 267 268 268 267 267 267 267 267 267 267 267 268 268 268 268 267 267 267 267 267 266 266 266 266 266 266 266 266 266 266 266 266 266
280 280 280 274 272 276 269 271 269 269 270 271 273 271 273 273 277 278 279 278 279 279 279 280 279 280 279 280 281 282 282 282 282 281 281 280 278 277 276 276 275 274 274 274 273 272 272 271 271 270 270 270 270 270 268 269 268 269 269 269 268 269 268 268 268 268 267 267 267 267 267 267 267 267 267 268 267 268 267 267 267 266 267 266 266 266 266 266 266 265 265 265 265 266 265 265 265
277 277 272 275 280 277 272 275 278 276 272 269 274 273 274 275 276 276 277 276 277 277 278 278 279 279 278 279 281 282 282 281 282 281 280 279 277 276 277 277 275 275 274 273 272 272 271 271 270 270 270 269 269 269 268 268 268 268 268 268 268 267 267 267 267 267 267 267 267 267 267 267 267 267 267 268 267 267 266 266 266 266 266 266 265 265 265 265 265 265 264 264 264 265 265 264 265
278 273 276 282 282 280 273 268 270 268 265 268 272 269 269 271 268 275 275 275 276 276 277 278 279 278 278 279 279 280 280 281 280 279 279 278 277 277 278 277 275 273 273 273 272 272 272 271 270 269 269 268 268 268 268 268 268 268 268 268 267 267 267 267 267 267 267 266 266 266 266 266 266 267 267 267 266 266 266 266 265 265 265 265 265 265 265 265 264 264 264 264 264 265 264 264 264
279 276 284 275 270 268 272 272 263 261 262 265 269 272 270 272 270 272 274 274 275 276 277 277 277 278 278 278 279 279 279 278 278 277 277 277 277 277 277 277 275 274 274 273 273 272 271 270 270 269 268 269 268 268 268 268 268 268 269 268 267 267 267 267 267 267 266 266 266 266 266 266 266 266 266 266 265 265 265 265 265 265 265 265 265 264 265 264 264 264 264 264 264 264 264 263 264
285 284 279 282 278 272 270 272 268 270 264 263 263 266 267 276 274 275 274 274 276 276 276 276 276 277 277 277 277 277 277 277 277 277 278 278 277 276 276 275 274 274 273 274 273 272 271 270 269 268 269 268 268 268 268 267 268 268 268 268 267 267 267 267 266 266 266 265 266 265 265 265 265 266 265 265 265 265 264 264 264 264 264 264 264 264 264 264 264 263 263 263 263 263 263 263 263
275 275 274 276 275 278 275 274 271 268 264 264 263 263 267 274 277 276 275 276 277 277 276 276 276 277 277 277 277 277 277 277 277 276 276 276 276 275 275 275 275 274 274 273 272 270 270 269 269 268 268 268 268 268 267 267 267 267 267 267 267 267 266 266 266 266 265 265 265 266 265 265 265 265 265 264 264 264 264 264 264 264 264 263 263 263 264 263 263 263 263 263 263 263 262 262 262
276 275 273 275 271 268 267 266 272 269 267 263 263 263 269 276 279 278 277 278 277 278 276 276 276 276 277 277 277 278 277 277 277 276 275 275 275 275 275 275 275 274 273 272 271 270 269 269 269 268 268 268 268 268 267 267 267 267 267 267 266 266 266 266 265 265 265 265 265 265 265 265 264 264 264 264 264 264 264 264 263 263 263 263 263 263 263 263 262 262 262 262 262 262 261 261 262
Wind_Speed
8 6 6 5 4 4 4 3 4 3 2 7 6 4 3 2 2 2 1 5 3 1 2 2 4 4 2 2 1 6 8 3 2 2 1 2 3 8 5 8 9 11 13 10 8 7 8 10 11 11 10 10 11 11 11 11 12 11 10 11 11 10 10 11 11 12 11 12 12 12 12 12 12 11 12 12 12 12 11 12 12 12 12 12 12 12 12 12 12 12 13 12 13 14 13 13 14
7 6 3 3 3 2 3 2 2 4 3 6 6 7 4 2 4 5 7 8 3 2 0 4 5 2 4 1 2 3 7 7 4 5 4 4 6 4 3 9 8 14 13 10 9 7 8 7 11 11 12 11 12 12 12 12 12 11 11 11 11 12 12 12 12 12 12 12 12 11 11 12 12 10 12 12 12 12 12 12 12 12 12 12 13 12 12 12 13 12 12 12 13 13 14 14 14
6 7 4 3 3 3 4 3 3 3 5 7 3 3 7 7 4 6 6 7 5 4 3 4 3 1 0 1 1 4 2 4 9 6 4 7 8 4 5 9 7 17 14 8 9 8 6 7 11 12 12 12 12 13 13 13 12 12 11 13 13 13 13 13 13 13 12 13 12 12 12 12 12 12 12 12 12 12 12 12 12 13 13 13 12 12 12 12 12 12 12 12 13 13 13 13 14
5 6 3 3 1 2 2 1 4 5 6 5 4 9 10 3 6 7 3 2 3 3 1 2 1 1 3 2 2 2 6 3 7 9 6 6 4 7 7 8 8 13 12 9 9 9 7 8 12 12 12 12 12 12 11 11 11 12 13 13 13 12 12 12 12 12 12 12 12 13 12 13 12 12 12 12 12 12 12 13 12 12 13 12 12 12 12 12 12 12 12 12 12 12 14 13 13
5 4 4 2 2 1 1 2 4 5 8 2 2 9 2 9 8 6 5 3 1 3 0 1 2 2 3 1 2 1 3 8 8 8 5 5 12 7 7 7 4 13 11 11 11 10 8 14 13 12 13 13 12 11 11 11 11 12 12 12 12 12 11 11 11 11 12 12 13 13 13 12 12 12 12 12 12 12 12 13 13 13 13 13 12 12 12 12 12 12 12 12 12 13 14 12 13
4 4 2 2 1 2 2 3 4 7 7 5 7 3 2 9 5 5 5 4 2 3 3 1 1 2 1 6 4 3 3 0 3 6 8 7 11 10 9 4 4 7 13 12 11 9 8 13 13 13 13 13 13 12 11 11 11 10 13 12 12 12 12 11 11 11 11 12 11 12 12 12 12 12 12 11 11 12 12 12 13 13 13 13 13 13 13 13 13 13 12 12 12 14 12 12 14
1 7 1 2 5 2 4 6 6 6 8 6 6 5 10 5 6 5 7 6 1 3 1 1 0 1 2 5 9 7 7 3 4 4 8 11 11 11 8 5 6 9 11 12 11 10 11 14 14 14 14 14 13 13 12 11 12 12 12 12 12 12 12 12 12 12 12 12 12 12 12 12 12 12 12 12 11 11 12 12 13 14 14 14 13 13 13 12 12 12 12 13 13 12 12 13 14
6 5 2 5 3 3 5 6 7 5 6 6 2 2 8 6 1 0 4 2 4 3 3 2 1 1 3 5 4 5 9 11 12 14 14 10 11 10 8 7 8 8 8 10 12 9 10 15 15 15 15 14 14 13 14 14 14 13 13 13 12 13 12 12 12 12 12 12 12 12 12 12 12 12 12 12 12 12 12 12 13 13 12 12 12 12 12 12 12 12 11 11 12 12 12 12 12
4 6 1 2 4 2 5 5 5 5 8 3 3 11 9 3 3 2 3 4 5 4 8 5 2 1 1 5 7 5 7 10 12 13 13 13 11 9 8 8 8 8 11 13 12 9 8 13 15 15 14 14 14 14 14 14 13 13 12 12 12 12 12 12 12 12 12 12 12 12 12 12 12 12 12 12 13 13 13 13 12 12 12 12 13 12 12 12 13 13 12 12 11 14 14 12 13
3 1 1 2 1 6 5 5 6 6 6 7 2 5 10 3 3 1 3 5 6 6 7 6 3 1 4 7 7 5 3 7 12 12 12 12 10 9 9 9 9 12 13 12 10 9 7 11 15 15 15 14 14 13 14 13 13 13 12 12 12 11 11 11 11 11 12 12 11 11 11 11 12 12 12 12 12 12 12 13 13 13 12 12 12 12 12 12 11 12 12 11 11 12 11 12 12
3 3 1 2 3 4 5 5 6 5 4 4 10 12 9 6 4 4 2 4 3 5 2 3 3 1 1 8 5 2 6 9 11 13 11 10 9 9 9 9 9 11 12 12 11 9 7 6 13 15 14 14 14 14 13 13 13 12 12 12 11 11 11 11 11 11 11 11 11 11 11 11 11 11 11 11 11 11 11 11 11 11 11 11 11 12 12 12 12 12 12 11 11 11 12 12 12
3 3 3 3 4 3 4 4 5 3 7 8 5 9 4 6 2 3 3 1 2 3 4 2 2 3 1 4 3 4 7 8 10 11 10 9 8 9 9 7 9 10 12 13 12 9 8 8 6 11 14 14 14 13 13 12 12 11 11 11 11 11 10 10 10 10 10 10 10 10 10 10 9 9 9 9 10 10 10 9 9 9 9 9 10 10 11 11 10 11 11 10 11 11 12 12 11
4 3 3 3 3 4 5 7 6 3 3 8 5 4 2 4 8 6 7 5 2 1 3 2 4 2 2 4 3 6 8 9 10 11 10 7 8 8 8 7 9 10 12 11 10 11 10 7 7 6 9 14 13 13 11 11 10 10 10 10 10 9 9 9 9 8 8 8 8 8 7 6 6 6 7 7 7 7 7 8 7 8 8 8 8 9 10 10 10 10 10 10 10 11 12 12 11
2 2 3 4 3 5 6 5 5 5 4 3 2 3 5 5 6 6 3 5 7 3 3 5 2 5 4 7 4 5 7 8 11 9 8 9 7 8 8 7 8 9 9 10 10 9 8 8 7 7 7 7 6 8 10 10 9 9 9 8 8 8 7 8 7 7 6 6 5 4 4 3 2 3 3 3 4 5 5 5 7 7 7 7 7 8 8 9 9 9 9 9 9 10 11 12 11
2 3 2 3 4 5 4 4 3 3 3 2 2 1 2 5 3 2 5 5 4 2 3 7 4 2 2 1 5 6 8 9 9 8 10 9 9 9 8 7 8 7 7 9 9 8 9 8 9 7 5 7 7 6 4 5 9 8 8 8 7 7 7 7 6 5 4 4 2 1 3 4 3 5 2 1 2 3 4 4 6 7 7 6 6 6 7 8 8 8 8 9 9 9 11 12 11
2 2 2 2 4 4 4 4 1 1 3 3 2 1 3 6 2 1 4 3 3 2 2 4 3 4 6 11 9 11 10 9 8 10 10 10 10 8 8 8 5 5 5 6 5 5 6 6 7 6 6 7 6 7 7 5 7 7 6 6 7 6 4 3 2 3 3 3 3 4 6 4 6 5 8 3 2 2 2 2 4 7 8 8 7 7 7 8 8 8 8 9 10 10 12 13 11
1 1 2 2 6 5 4 6 1 1 3 3 3 6 5 4 1 3 1 1 2 3 4 6 6 7 10 8 10 10 9 8 9 10 10 8 7 6 6 5 5 4 3 4 4 4 4 5 5 3 3 4 3 4 8 7 5 7 5 6 7 5 3 1 3 6 5 5 4 5 7 4 6 5 6 2 2 2 3 2 2 4 7 7 7 7 8 9 9 8 9 9 10 11 11 12 11
2 2 3 4 4 7 4 5 4 1 3 3 7 5 5 3 2 2 1 1 2 6 4 9 13 12 9 8 9 9 8 9 9 9 8 7 5 5 5 5 4 4 4 4 4 4 3 4 5 4 5 5 4 5 4 5 4 4 4 4 4 4 5 1 3 1 3 3 4 3 4 4 3 6 4 5 3 3 2 3 3 5 6 6 6 7 9 9 8 8 9 8 10 10 10 5 7
3 2 3 4 4 1 0 3 6 4 4 6 3 6 3 6 5 2 3 6 3 4 5 6 12 10 9 8 7 9 8 8 8 7 8 7 6 6 6 4 5 4 4 4 4 4 4 4 4 5 4 3 4 4 3 2 2 2 2 1 1 3 3 2 1 5 7 6 6 6 4 6 5 5 3 3 3 5 3 5 6 7 7 6 6 7 10 9 8 9 9 7 9 9 5 5 3
4 3 3 4 1 6 8 5 7 6 4 5 5 6 3 6 4 3 1 5 15 14 9 11 8 9 8 7 7 7 8 7 6 6 6 6 7 6 6 5 6 4 4 4 5 5 4 4 7 7 5 5 5 6 5 7 7 5 3 2 3 4 6 4 5 7 6 5 5 6 6 4 3 4 3 3 3 3 3 7 9 8 8 7 6 6 8 7 4 8 11 7 6 5 2 2 2
3 5 4 4 3 2 6 8 8 6 6 4 4 2 3 7 7 8 10 3 11 10 10 8 9 7 8 7 6 6 7 6 5 5 5 5 6 5 6 5 6 5 5 6 5 4 3 4 4 5 5 5 6 5 5 5 3 4 7 7 6 6 4 5 7 6 6 7 5 7 6 2 4 4 5 5 5 6 6 6 2 3 2 2 6 4 3 4 3 4 4 4 2 3 3 3 3
2 3 5 5 4 1 8 8 7 4 3 2 1 4 7 3 15 15 16 12 6 7 8 7 5 7 5 8 6 6 6 5 5 5 5 5 7 8 10 10 10 7 7 7 6 5 5 6 8 6 7 8 6 5 5 7 7 8 6 7 6 6 6 6 6 7 7 7 7 7 8 7 7 7 8 7 7 6 7 7 6 7 6 4 4 4 4 4 4 4 5 5 3 3 5 4 3
3 4 8 10 2 2 5 7 5 5 5 5 5 5 3 10 12 12 16 12 7 7 6 6 4 1 6 7 5 7 7 8 8 10 13 12 10 8 8 6 6 6 7 9 8 8 8 7 6 6 6 4 4 3 7 7 7 6 6 6 6 6 6 6 7 7 7 7 6 7 8 8 7 7 8 8 7 7 7 6 6 6 5 6 5 4 4 4 4 4 4 4 4 5 4 4 3
2 5 5 4 4 3 7 7 5 4 6 7 4 3 4 6 14 10 15 9 9 8 9 10 13 14 15 16 17 17 17 16 15 14 13 12 11 12 12 12 11 11 10 9 9 8 8 9 7 7 6 6 7 8 8 7 6 6 6 6 7 7 7 7 7 7 7 7 8 7 8 7 7 7 7 7 7 7 7 6 6 5 5 5 4 4 4 5 5 7 5 5 5 4 4 4 5
3 3 5 3 1 5 7 4 4 3 4 4 2 6 12 15 11 13 13 11 10 11 11 12 14 16 15 15 15 14 14 13 13 11 11 12 15 15 15 13 13 12 13 13 11 12 13 12 12 11 10 10 8 8 8 7 7 7 8 8 8 8 7 7 7 6 7 7 8 8 7 8 7 7 7 7 7 7 7 7 6 7 7 7 5 4 3 5 6 6 6 5 5 5 6 6 5
3 5 3 1 1 8 4 4 4 3 3 1 3 13 11 10 16 17 10 11 11 11 14 14 14 16 15 15 14 13 12 12 12 14 16 15 16 19 17 14 13 14 12 12 12 12 13 14 14 14 12 11 11 10 9 9 9 9 9 9 8 8 8 8 8 7 6 6 7 7 7 7 7 6 7 7 7 7 7 7 5 5 6 6 6 5 4 5 6 6 7 5 5 4 5 7 6
2 4 4 4 3 6 2 0 6 2 4 1 6 13 14 16 7 7 8 10 11 14 15 15 17 18 19 17 17 17 19 19 18 15 15 13 14 14 14 14 15 13 12 13 12 11 11 13 15 15 14 12 9 10 10 10 9 9 9 8 8 7 8 8 7 7 6 6 6 7 7 7 6 6 6 7 6 7 7 6 7 7 7 6 6 6 6 6 5 6 7 7 5 6 6 6 6
4 3 3 4 5 3 3 2 5 3 4 0 15 16 15 11 11 9 6 10 13 16 17 17 16 16 15 18 17 16 16 14 14 16 19 16 12 11 12 11 13 13 14 13 10 10 12 14 14 14 14 13 12 10 9 9 9 9 8 7 8 7 6 6 6 6 6 6 6 7 7 7 6 6 7 7 7 7 7 6 6 6 6 6 8 8 8 7 7 6 5 5 5 5 6 5 4
2 0 2 3 5 5 2 4 4 1 4 1 15 16 16 14 10 9 4 11 14 16 17 16 16 15 15 16 15 15 14 14 14 14 15 12 12 12 14 12 11 12 10 13 12 12 12 11 12 13 13 13 13 12 10 8 7 8 8 7 7 7 7 6 6 6 6 6 6 7 8 8 6 7 8 8 8 8 8 7 6 7 6 7 7 8 9 7 7 7 7 7 7 5 5 6 6
1 3 2 4 4 4 4 4 1 3 3 1 2 2 6 11 11 9 7 12 15 16 15 14 13 14 14 15 14 15 14 14 15 13 12 12 12 13 14 13 12 10 9 9 13 14 10 8 9 9 11 12 12 10 10 8 8 6 6 7 6 6 6 6 6 6 6 6 6 8 8 9 6 8 8 7 7 7 8 7 7 7 6 7 7 7 7 7 7 7 7 7 6 5 6 6 7
2 1 1 2 0 2 6 3 0 3 1 2 2 3 6 10 11 9 11 13 16 15 14 14 14 14 13 13 13 13 14 13 14 14 14 14 12 12 13 12 12 11 9 10 12 12 12 11 10 9 11 11 11 10 10 9 8 7 6 6 6 5 5 6 6 6 6 6 6 7 8 8 7 8 8 7 7 7 7 7 7 7 7 6 6 6 7 6 6 7 6 7 7 6 6 6 6
2 0 1 1 2 2 5 4 7 4 3 5 4 9 6 10 10 9 10 13 15 15 13 14 13 12 13 11 12 12 12 12 13 13 13 13 12 11 12 12 11 11 11 10 10 10 12 12 11 11 11 11 10 10 9 8 8 8 7 6 7 6 5 5 6 5 6 6 6 7 8 8 7 9 8 7 6 7 7 7 7 7 7 6 6 6 6 7 6 6 6 7 8 7 8 7 7
2 1 3 3 3 4 4 5 4 3 2 6 3 8 7 9 9 10 11 13 13 13 13 12 14 13 11 10 10 10 10 11 11 12 12 11 10 9 10 10 11 12 11 11 10 10 11 11 11 12 13 11 10 10 9 7 8 8 8 7 8 6 6 5 6 6 6 6 6 5 5 7 6 8 8 7 6 7 6 6 7 7 7 7 7 7 7 7 7 7 7 8 8 8 8 9 8
3 6 3 4 4 1 1 3 6 3 8 9 14 13 10 9 8 10 11 11 12 12 13 12 11 10 10 9 10 9 10 9 10 10 10 10 9 11 10 10 10 10 11 11 11 10 10 9 9 9 9 9 9 8 8 7 6 6 7 6 7 6 6 5 5 5 6 6 7 7 4 6 5 7 8 6 6 7 6 6 7 9 8 8 8 8 8 8 7 8 8 7 8 8 8 8 9
5 3 3 3 6 3 7 2 5 4 14 16 14 16 11 10 9 9 10 11 11 11 10 10 10 10 9 9 10 10 9 10 9 8 9 8 9 8 8 8 9 9 9 10 10 9 8 8 8 8 8 9 9 8 7 7 6 4 6 7 7 6 5 5 5 5 5 5 5 7 5 5 6 7 7 6 6 7 7 8 8 9 8 8 8 8 8 9 8 8 8 8 7 7 8 8 9
4 5 3 3 3 3 3 5 2 6 9 9 11 10 10 9 9 8 9 9 9 10 9 8 9 9 9 9 8 8 8 9 7 7 8 8 7 8 7 7 8 8 8 8 9 9 8 7 7 7 8 8 8 7 6 6 6 5 6 7 6 6 5 5 5 5 5 5 6 7 6 4 5 7 8 6 6 7 7 7 8 8 8 8 8 8 8 8 9 8 8 9 9 8 8 8 9
4 4 3 4 5 3 5 4 3 4 10 10 12 13 10 9 9 8 8 8 9 9 9 8 8 8 8 8 8 8 8 8 6 6 7 7 7 7 7 7 7 7 8 8 8 9 9 8 7 8 8 8 7 8 7 7 8 7 5 8 7 7 7 6 5 4 5 5 6 6 6 6 4 5 7 6 6 7 7 7 8 8 8 8 7 8 9 10 9 8 7 7 9 10 8 9 10
4 4 4 2 8 4 3 4 2 3 3 6 11 14 11 9 8 8 7 7 8 8 8 9 8 8 7 8 8 7 7 6 6 6 7 7 6 7 6 6 6 8 8 8 8 8 8 8 8 7 6 6 7 7 6 6 6 5 5 6 6 6 6 5 4 4 4 4 4 4 4 4 4 3 5 5 5 6 6 6 7 7 8 7 7 8 8 9 10 8 7 6 5 8 7 9 9
3 4 4 2 4 3 3 4 1 1 8 6 10 13 9 9 9 7 7 8 7 6 7 7 7 7 6 6 6 6 6 6 6 6 6 6 7 7 5 6 6 6 6 7 6 6 6 6 6 5 5 5 6 7 6 6 5 6 5 5 6 3 3 4 4 3 4 5 5 5 5 5 5 3 3 3 3 4 5 6 6 7 7 8 8 7 8 7 8 8 7 6 7 5 7 7 8
2 6 4 3 3 4 2 2 2 4 2 7 10 13 8 9 8 8 6 6 6 8 8 7 5 6 6 5 5 5 5 4 5 5 4 5 5 5 5 5 5 5 5 5 5 5 5 5 5 5 5 6 6 7 7 7 7 7 5 5 6 4 4 5 3 4 4 6 5 5 3 5 6 3 3 2 2 3 4 5 5 5 6 7 7 8 8 8 8 7 6 7 7 8 7 7 8
5 5 2 1 3 3 1 2 5 3 9 16 12 10 6 5 5 5 6 6 7 5 6 5 5 5 4 5 4 4 4 4 4 4 4 4 4 5 5 4 3 4 4 4 5 5 4 5 5 4 4 5 4 7 6 6 6 5 5 4 4 4 5 4 3 4 5 5 6 5 5 6 5 5 4 1 2 2 3 4 4 5 6 6 6 7 7 8 8 6 8 7 7 7 9 8 6
0 2 2 2 4 4 4 4 3 1 4 8 7 4 3 3 5 5 3 3 5 4 4 5 5 4 4 4 4 3 3 3 3 3 3 3 4 4 4 4 4 3 4 3 3 4 4 3 4 3 2 3 3 5 6 6 6 7 7 6 6 6 6 6 5 7 7 6 6 5 5 5 5 5 5 1 3 2 3 3 4 5 6 6 6 6 6 6 6 7 8 7 7 7 8 9 8
3 0 1 1 2 3 4 5 1 3 3 6 5 2 2 3 3 5 3 3 4 3 3 3 3 3 3 3 3 3 3 3 3 3 3 3 3 4 4 4 3 3 3 3 3 3 3 3 3 3 3 2 4 5 6 6 6 6 6 6 5 5 6 5 5 5 6 6 5 5 6 5 5 6 4 3 3 3 2 3 3 4 5 5 7 6 6 6 6 7 7 5 5 6 8 8 10
2 0 1 2 3 4 4 3 3 3 1 4 4 4 4 2 3 4 6 4 4 3 3 3 2 3 3 2 2 2 2 2 3 3 3 3 3 3 3 3 3 2 2 2 2 3 3 4 3 3 4 2 3 5 5 6 6 5 5 5 4 4 5 6 6 5 5 6 6 6 5 5 5 6 5 4 2 2 2 3 3 4 5 6 7 5 5 6 6 7 6 6 6 5 6 8 10
4 4 3 6 3 4 4 3 4 4 4 2 5 6 2 1 2 5 8 6 4 3 3 2 3 3 3 2 2 2 2 1 2 1 2 2 2 2 2 2 2 1 1 1 2 2 3 4 4 3 4 3 3 4 5 6 5 6 5 4 3 4 5 5 5 5 5 6 5 6 5 5 6 5 6 4 3 3 4 3 3 4 5 6 7 6 5 7 7 7 8 8 7 7 6 8 8
4 7 9 7 3 3 4 3 4 3 3 1 4 5 2 1 6 4 9 1 1 3 4 3 3 4 3 3 3 3 3 2 0 1 1 2 3 5 3 2 1 1 0 2 1 2 3 3 4 5 4 3 3 4 4 5 5 5 6 4 4 5 5 5 5 5 5 5 5 6 4 5 6 6 7 4 4 3 4 4 4 4 5 6 7 6 7 7 6 7 8 7 8 8 7 7 8
7 9 8 7 5 3 3 4 3 2 2 3 3 3 3 1 3 0 2 1 1 3 3 1 2 2 3 3 3 2 0 0 1 2 3 3 1 8 7 3 2 1 1 1 2 3 3 3 3 4 3 2 2 3 3 4 4 4 4 4 4 5 6 6 6 6 6 5 6 6 5 5 5 6 6 5 3 4 4 4 4 4 5 7 7 6 6 7 7 7 7 8 8 9 7 8 9
5 3 7 8 3 1 2 3 3 1 0 3 1 5 5 2 1 3 1 1 1 2 2 6 4 4 3 3 2 1 1 2 2 3 3 3 5 3 7 2 3 1 1 1 1 1 3 2 3 4 3 2 2 2 3 4 5 5 5 3 3 3 5 6 7 6 6 6 6 6 6 6 6 6 6 6 4 4 3 3 4 4 5 6 6 6 6 6 6 7 7 7 8 8 8 8 8
7 8 9 7 4 3 4 2 3 3 0 1 3 4 2 2 1 3 5 2 0 1 3 1 4 4 3 2 1 1 3 1 2 3 3 3 2 3 2 4 2 1 1 1 1 1 2 2 4 4 5 2 3 3 3 4 4 5 6 5 2 3 4 6 6 6 6 5 6 6 7 7 7 6 7 6 6 4 3 4 4 5 6 6 7 7 7 7 7 7 8 9 8 9 8 9 9
7 8 5 4 3 3 1 3 1 1 4 5 2 2 1 2 1 4 4 3 3 1 1 2 2 1 1 2 2 2 2 2 2 1 2 3 3 4 4 3 1 1 0 1 1 1 2 2 3 4 5 3 3 3 3 3 4 4 5 5 2 2 3 5 5 6 6 5 6 6 7 7 7 6 6 6 7 6 3 3 4 6 6 7 7 7 7 7 8 7 8 8 9 8 8 9 10
5 4 5 3 3 1 1 1 1 2 4 10 1 3 2 3 1 4 2 4 2 2 1 0 2 1 0 0 1 3 6 3 0 1 3 3 5 1 5 3 1 1 2 1 0 2 2 2 3 4 5 4 3 3 3 4 4 5 5 4 3 2 3 4 5 6 5 6 6 6 6 6 7 6 6 6 7 6 5 5 6 6 7 7 6 6 7 7 7 8 7 8 8 8 9 9 9
1 4 3 3 2 2 2 2 2 2 3 5 0 1 3 1 1 3 3 4 3 3 4 2 2 4 4 4 6 7 3 0 0 2 3 2 3 4 3 3 2 2 1 1 2 2 2 3 3 4 5 4 3 3 3 4 4 4 4 4 3 3 3 4 5 6 5 5 6 6 6 6 6 6 6 6 5 6 6 7 7 7 7 6 6 6 7 7 7 8 7 8 8 7 8 11 9
6 3 2 1 1 1 2 4 1 3 1 4 3 2 1 1 2 3 4 4 4 4 4 5 6 6 5 5 7 3 1 2 3 2 2 1 4 3 4 2 1 0 0 1 3 3 2 3 3 4 5 4 4 3 4 3 4 4 5 4 3 3 3 4 5 6 6 6 5 5 6 6 7 6 6 6 6 5 5 6 7 7 6 7 7 7 7 7 7 8 8 9 9 8 8 8 9
1 2 3 5 1 2 1 2 3 1 2 4 5 5 0 1 4 4 5 5 5 6 6 6 6 5 5 6 1 1 1 1 1 1 2 2 6 4 4 5 4 3 3 4 5 2 1 2 3 4 5 5 4 3 3 4 4 5 5 4 3 3 4 4 5 6 6 6 5 5 6 7 6 6 6 6 5 6 7 7 7 7 7 7 7 7 7 8 8 8 8 9 9 9 9 8 8
5 1 4 2 1 2 2 1 2 3 3 3 4 1 4 5 2 2 6 6 7 8 6 4 3 2 2 2 2 1 1 1 1 2 4 3 6 9 8 7 3 3 3 4 5 3 0 2 3 3 4 4 4 4 3 3 4 5 5 4 3 3 3 4 5 5 6 5 6 6 7 7 6 6 6 6 6 7 6 7 8 8 7 7 7 7 8 7 8 8 8 8 8 9 10 10 8
3 1 2 1 1 0 1 1 1 1 4 4 4 4 5 3 1 5 5 4 1 2 1 1 1 2 2 2 2 1 1 2 4 5 5 5 3 2 1 3 2 3 4 4 4 1 0 1 2 4 4 4 4 4 4 4 4 5 6 5 4 3 4 4 5 5 5 6 7 7 7 6 6 6 6 7 7 7 7 7 7 8 9 8 8 8 8 8 8 8 9 9 9 10 11 12 11
5 5 3 3 1 2 3 0 0 0 1 2 3 6 2 1 1 3 4 2 1 1 2 1 1 2 3 2 2 3 3 4 4 2 4 4 1 2 2 1 1 2 4 4 2 3 1 1 3 4 4 5 5 4 4 4 4 5 5 5 5 4 5 5 5 5 6 6 6 6 6 6 5 6 6 7 6 7 7 7 8 8 9 9 8 8 8 9 8 9 10 10 11 11 11 11 11
1 2 1 1 2 3 3 2 1 2 1 3 1 7 7 1 1 3 2 2 3 2 2 1 3 3 2 4 3 3 4 4 5 2 1 3 1 1 1 1 1 1 2 4 4 3 3 4 4 4 4 4 4 4 4 5 5 5 5 5 6 5 5 5 5 6 6 6 6 6 6 5 6 6 6 7 7 7 7 8 8 8 8 9 10 10 10 8 9 10 11 10 10 12 12 12 12
Wind_Direction
288 256 227 217 233 269 251 171 257 180 219 250 257 241 260 4 37 2 302 160 81 62 42 91 40 45 22 72 91 54 27 28 14 262 231 150 178 123 162 141 156 127 119 107 106 105 110 113 114 113 112 107 100 98 99 97 94 93 96 99 94 86 86 83 80 79 76 75 74 71 65 64 60 55 58 55 52 50 49 47 46 46 45 46 45 43 43 42 40 41 41 41 42 47 41 38 34
291 278 223 218 240 256 219 203 252 285 239 250 250 262 20 323 55 59 55 62 46 95 81 76 72 87 70 325 321 105 48 40 44 89 92 102 105 122 147 135 178 104 109 117 117 113 110 113 118 116 114 113 112 112 110 106 103 100 96 91 87 82 82 82 81 78 77 75 72 72 73 70 64 59 58 55 52 51 46 47 45 45 45 44 43 43 41 41 40 40 39 39 37 40 42 36 34
303 308 255 176 253 237 318 159 263 252 264 256 252 47 305 282 96 55 62 80 96 123 89 71 90 81 128 251 157 350 110 129 89 91 100 133 127 145 159 133 170 115 115 122 117 106 104 114 123 121 117 116 113 110 111 109 108 101 96 85 81 82 81 84 82 80 76 74 72 69 65 63 62 60 59 57 53 48 49 47 45 45 44 43 43 41 40 39 37 37 37 37 36 34 38 34 34
280 262 274 168 228 193 262 154 244 278 269 281 300 324 233 139 97 113 97 104 92 109 101 128 167 5 330 75 34 86 96 76 92 125 122 172 147 156 137 154 156 111 120 119 116 113 109 129 128 125 124 119 119 118 112 106 103 99 90 85 85 85 84 83 86 84 76 73 71 67 66 64 63 62 60 58 53 51 48 46 45 44 44 42 41 40 38 36 35 34 35 35 35 33 35 30 34
252 263 219 280 311 204 205 248 246 237 252 259 265 250 310 95 107 107 110 109 119 95 314 64 108 335 31 78 342 48 72 88 63 88 106 75 114 142 139 146 142 115 120 120 120 114 121 133 130 126 122 120 120 116 114 114 108 97 90 92 94 89 87 82 76 78 79 77 71 66 62 62 61 60 58 57 55 51 49 46 44 43 41 40 39 37 35 33 32 31 31 32 33 31 33 29 34
273 291 30 6 249 36 294 248 236 236 262 268 268 207 12 79 86 101 118 103 74 61 40 110 31 149 122 53 16 86 317 221 109 82 107 127 128 138 128 142 129 139 129 122 110 111 132 133 128 125 122 120 118 115 112 108 105 103 101 95 89 83 81 78 75 71 73 72 71 70 64 60 58 54 54 52 51 50 47 46 44 42 38 37 36 34 30 27 26 25 25 28 29 32 28 29 32
30 349 110 267 243 214 258 250 251 254 251 242 254 288 100 93 113 131 130 109 15 103 319 87 21 58 142 121 78 52 15 48 84 87 103 125 129 122 126 135 101 70 102 108 107 121 128 133 129 126 125 122 118 112 105 101 102 98 91 90 88 87 83 82 79 78 73 68 66 65 65 60 57 55 49 46 44 45 44 43 42 39 35 31 33 31 30 27 25 23 22 20 24 24 28 30 28
199 212 186 212 236 173 217 244 259 266 282 243 275 308 117 103 87 354 137 255 151 179 194 65 109 348 75 267 105 67 54 73 97 101 113 121 120 129 127 121 106 107 104 101 103 105 127 132 128 127 124 122 118 112 109 107 100 100 99 95 92 87 86 81 78 74 70 69 67 63 62 61 58 54 53 49 42 37 34 40 41 38 36 32 31 31 28 27 24 22 22 23 22 23 27 30 22
226 226 103 345 283 282 254 236 259 252 260 220 201 87 95 92 79 16 311 114 156 121 155 147 119 152 231 72 79 96 72 85 100 110 117 120 127 128 127 121 116 114 93 92 103 123 126 130 129 127 123 118 116 115 113 106 100 96 94 90 88 87 87 84 81 76 72 68 65 64 61 58 56 52 48 46 43 39 34 31 36 33 30 29 23 24 25 24 20 18 15 18 20 29 26 20 16
245 189 194 234 269 261 267 260 250 238 238 240 53 75 95 76 73 334 12 323 73 84 72 119 140 29 169 119 122 99 116 119 111 111 120 124 127 126 122 114 117 107 100 111 123 121 123 128 127 122 121 117 114 109 104 99 95 92 88 86 84 83 81 80 76 73 71 67 65 59 56 53 49 47 46 43 41 38 36 34 30 29 27 27 24 18 17 18 19 16 13 13 16 24 19 15 12
252 157 317 332 244 247 250 273 261 277 262 55 40 54 51 62 31 359 42 335 74 87 106 108 147 216 285 71 65 99 128 124 119 116 122 126 122 122 113 114 111 106 118 122 115 116 124 116 120 119 117 114 107 102 98 95 90 87 83 80 79 77 75 73 70 68 65 63 58 55 51 47 45 44 42 42 39 35 32 31 31 29 26 24 21 18 18 17 14 14 12 12 14 13 9 8 7
282 221 135 237 251 268 275 268 270 281 336 54 71 38 3 62 31 25 31 346 101 132 114 210 47 345 196 120 106 136 135 113 109 116 119 123 121 109 107 110 110 114 117 111 115 125 117 112 100 111 111 106 102 98 92 88 85 80 76 70 65 62 59 60 57 58 58 56 52 47 44 41 39 40 42 41 39 35 30 24 24 24 20 19 18 16 11 13 13 10 7 6 2 0 358 359 360
247 310 232 221 252 245 264 263 272 343 328 55 47 355 321 60 40 20 4 343 62 351 112 184 53 337 15 65 127 135 113 107 112 117 124 123 110 102 105 109 112 112 107 119 123 120 125 117 113 106 107 104 101 97 92 89 86 80 72 66 62 58 54 49 49 48 45 42 39 37 35 25 29 35 37 42 46 40 26 22 18 14 15 16 13 10 6 4 6 4 1 358 354 350 350 348 349
300 267 305 284 295 275 276 280 318 304 49 98 35 54 29 44 43 27 338 335 35 64 18 82 353 18 115 118 127 122 96 113 117 121 120 108 103 104 104 106 105 103 114 116 115 130 133 122 125 112 118 109 101 98 98 92 81 76 71 67 60 52 45 44 39 38 37 23 12 20 356 351 343 11 42 61 61 53 31 18 7 4 2 10 6 1 358 357 352 355 353 348 344 341 337 336 336
294 319 313 297 295 303 305 318 271 349 91 64 289 347 91 70 62 42 12 4 93 65 79 40 23 317 40 264 157 128 126 119 117 121 109 104 99 95 92 92 98 101 99 112 131 134 125 136 118 139 149 130 139 128 114 98 92 82 80 74 67 62 51 39 27 19 0 352 341 289 304 281 277 265 260 125 55 86 56 22 354 349 350 348 354 353 346 344 343 340 338 337 333 330 327 325 325
249 355 307 271 268 273 272 268 113 203 94 92 274 20 87 78 58 42 60 14 93 71 305 69 11 40 65 66 82 110 119 121 122 114 111 104 93 89 95 91 91 87 87 101 102 105 121 120 130 152 165 148 151 141 125 106 102 109 112 101 95 82 79 50 344 331 320 278 268 294 277 257 259 242 232 188 195 126 100 43 351 338 334 334 331 339 335 327 329 329 331 327 327 322 322 320 318
49 329 298 242 257 252 259 254 239 66 116 104 186 26 14 92 1 82 326 304 216 119 80 58 62 58 66 87 98 109 114 117 113 114 109 98 102 103 93 90 92 86 93 81 89 99 112 114 116 107 85 87 75 99 103 107 129 143 136 149 139 143 134 164 280 290 257 278 230 245 247 261 258 207 226 186 116 154 134 116 327 313 310 316 322 321 320 313 316 324 321 323 321 320 318 317 307
149 210 220 258 252 261 10 30 28 353 2 68 65 13 4 78 157 93 144 191 253 97 93 87 72 72 85 97 98 102 112 119 120 121 116 114 113 113 109 108 104 96 84 90 75 46 55 85 110 99 76 82 88 65 84 111 148 204 162 169 172 164 163 110 286 263 344 340 198 279 283 290 360 9 43 53 16 338 147 195 252 260 278 299 306 314 303 303 309 312 317 319 318 321 311 305 298
200 227 221 250 261 147 43 40 43 22 31 3 24 70 5 48 346 95 310 130 37 79 96 80 91 84 85 88 107 115 125 120 130 121 120 126 125 128 114 122 107 106 100 73 70 73 43 41 61 80 78 76 76 80 101 132 162 111 70 77 119 181 183 175 140 44 28 17 4 332 337 20 6 341 55 55 346 306 309 230 248 279 292 280 291 296 301 295 281 302 315 300 317 307 288 265 299
211 259 235 243 51 331 52 45 63 52 12 9 355 70 356 58 24 338 346 42 58 50 16 10 55 97 93 109 112 127 120 130 133 126 125 129 122 121 117 122 114 110 105 105 85 66 50 49 48 53 55 43 28 51 25 31 32 18 344 14 31 28 37 11 64 65 40 12 4 357 357 0 334 310 77 50 300 298 268 247 250 277 295 287 261 268 288 333 286 301 321 311 267 285 244 286 317
173 198 231 271 69 342 58 51 50 52 39 359 24 12 65 52 39 20 6 81 45 36 26 8 17 53 105 105 117 121 119 128 117 119 117 109 119 124 115 119 117 115 95 81 75 74 60 56 68 68 54 45 25 24 44 52 19 11 21 18 2 43 38 31 50 63 47 12 9 356 332 326 344 359 34 18 5 351 348 357 360 290 285 340 215 263 293 7 0 315 303 306 288 304 331 321 330
341 248 272 272 304 301 78 73 44 62 86 7 37 37 58 99 50 44 47 58 35 6 12 358 7 11 71 105 110 111 110 107 96 106 96 72 65 64 70 53 53 66 65 67 67 62 44 46 39 37 53 46 35 15 34 41 38 43 36 12 19 25 38 42 44 65 50 26 10 4 355 5 10 16 18 7 3 359 2 6 353 338 335 332 337 325 354 353 324 313 323 322 314 329 305 287 271
235 238 237 246 62 355 67 67 43 18 33 32 41 20 353 69 62 50 58 49 41 33 24 25 33 31 69 95 106 98 93 76 60 61 61 57 60 64 76 90 83 66 61 56 44 39 35 39 58 52 56 64 56 42 50 50 44 50 48 34 32 26 32 39 37 46 55 40 20 11 6 6 11 14 17 3 357 5 358 346 344 333 335 347 325 340 350 330 330 322 319 315 312 302 293 292 277
259 273 335 348 67 49 69 76 64 47 42 53 39 310 28 74 66 51 58 49 45 41 41 42 39 46 52 57 51 54 55 57 60 58 56 57 58 54 50 54 54 53 58 57 53 44 38 47 51 53 53 52 48 48 51 46 40 42 38 39 33 32 36 36 39 38 36 36 23 15 14 7 6 11 15 1 352 355 346 334 331 329 344 322 311 353 350 341 349 341 327 320 319 320 316 305 293
233 258 257 80 31 85 76 86 75 76 73 64 28 59 69 77 79 61 49 52 50 50 56 55 56 55 58 61 62 62 63 63 65 68 62 55 53 54 55 58 58 57 54 48 42 42 37 33 37 43 42 42 42 43 47 44 41 34 32 29 28 26 29 31 34 41 43 34 22 13 16 7 3 3 10 357 347 350 333 327 338 344 335 322 327 350 356 355 349 335 316 308 317 319 319 309 302
207 237 334 51 55 91 90 115 95 81 94 72 108 75 79 96 83 55 44 58 59 63 60 58 61 63 62 63 62 60 63 68 70 62 60 54 50 52 47 48 51 56 55 55 51 47 40 35 33 35 41 43 38 36 37 38 32 33 29 28 26 24 24 25 25 24 41 50 33 15 12 10 2 2 5 354 348 339 327 318 337 330 323 323 332 352 359 9 339 326 307 309 319 315 313 302 300
308 356 3 335 25 110 99 40 113 113 81 163 89 80 61 39 42 60 45 68 73 67 64 60 58 54 47 45 45 47 48 43 42 52 57 56 56 58 57 51 49 46 46 49 49 48 44 43 39 32 30 33 43 44 38 35 33 35 30 22 20 25 23 22 23 20 12 44 48 28 11 10 2 4 2 351 347 329 322 327 333 328 317 320 329 5 0 339 312 293 287 287 278 277 269 269 281
349 6 317 258 232 85 105 104 116 150 98 238 93 75 53 39 61 37 30 89 80 75 67 62 59 58 57 54 51 49 49 47 50 52 54 52 49 52 56 58 56 51 45 42 42 45 47 44 44 39 33 31 33 38 40 39 33 28 30 26 14 16 23 25 18 17 11 16 38 37 20 4 4 10 360 348 347 333 322 329 327 326 329 355 1 352 342 323 297 280 293 308 299 294 283 280 291
337 81 280 283 133 110 40 94 90 223 104 179 119 81 47 36 36 12 3 91 83 78 74 70 66 63 60 58 57 53 51 53 54 54 53 53 56 57 60 54 57 60 54 50 43 43 43 43 43 39 35 33 34 31 30 32 34 31 23 20 15 10 17 20 20 10 11 13 21 39 24 0 12 10 358 351 343 331 324 328 331 336 342 6 350 339 332 321 320 321 318 298 290 288 314 315 303
197 242 238 278 196 104 77 90 60 101 80 226 164 37 43 41 23 9 43 86 82 76 72 71 70 67 65 65 63 60 57 59 58 58 57 56 54 53 59 58 59 60 58 54 51 45 39 40 40 39 37 36 33 31 28 24 23 26 32 14 12 11 16 15 10 16 7 9 19 36 26 360 13 12 356 345 341 329 329 334 337 333 350 354 347 339 324 318 314 314 303 306 311 329 318 305 298
247 133 126 227 216 81 33 40 264 101 107 170 212 102 69 38 25 27 58 71 78 78 76 76 74 72 70 69 69 68 67 63 65 63 61 62 60 59 58 55 55 56 58 56 54 52 47 41 39 37 34 38 33 31 28 22 20 16 19 24 3 9 22 16 1 20 11 359 25 30 26 360 7 12 352 339 338 331 331 333 336 332 343 348 342 322 318 314 317 311 318 324 324 322 310 311 318
238 53 246 227 129 118 75 17 29 66 175 205 135 79 76 54 33 35 64 75 80 82 79 77 78 77 78 77 76 73 70 67 66 65 64 62 60 60 59 58 52 51 50 51 54 52 50 45 39 39 29 32 33 26 26 24 17 14 10 15 9 359 13 24 359 23 21 358 31 24 21 358 6 6 346 338 338 336 330 333 333 332 339 346 335 322 322 327 318 324 333 346 343 335 333 324 321
190 172 315 15 55 141 113 43 26 2 312 53 63 118 121 67 47 47 63 73 76 81 79 79 77 77 77 76 76 74 71 68 67 66 66 64 61 59 59 58 56 53 49 46 47 48 48 43 42 38 30 25 25 23 23 22 17 16 12 10 7 359 360 17 10 20 22 11 18 20 22 357 6 0 341 337 348 332 334 337 325 336 349 349 341 338 335 329 342 347 349 347 342 331 330 322 317
23 14 356 335 41 285 117 150 38 333 69 71 69 88 81 83 68 60 61 72 80 81 82 80 79 79 79 77 76 77 74 70 64 64 67 68 67 62 58 58 57 55 52 46 44 44 43 42 38 40 35 27 20 20 17 18 12 13 13 5 5 355 1 356 23 27 24 19 14 353 17 3 7 354 338 343 347 330 334 330 346 356 356 355 350 344 338 338 351 354 346 344 344 337 328 323 313
324 348 3 338 340 9 77 81 321 18 94 91 87 85 87 82 77 69 71 75 77 78 80 84 87 88 86 82 79 78 78 72 71 68 63 60 64 67 63 59 55 53 51 50 44 42 42 42 38 36 36 29 20 15 15 13 7 7 18 2 4 350 1 346 24 34 32 18 10 349 352 8 9 351 336 350 344 335 350 354 356 352 357 354 351 345 343 341 345 346 345 340 342 334 323 318 318
328 334 301 298 297 8 68 112 63 41 69 75 78 93 91 78 75 76 72 73 82 87 88 89 89 87 85 86 87 85 85 83 78 76 74 69 62 58 61 63 62 57 54 51 50 45 43 40 41 36 33 29 24 13 5 11 3 357 7 355 5 353 355 350 11 31 36 18 4 349 340 8 9 354 338 349 352 350 359 351 355 351 357 354 348 349 341 339 335 342 344 342 336 329 331 327 326
299 292 307 263 265 116 111 86 73 27 86 75 92 94 87 77 66 68 76 84 82 85 87 88 89 88 89 94 95 94 90 95 95 80 74 73 71 67 62 55 57 57 55 48 49 46 38 33 31 37 26 23 20 15 5 4 2 350 5 358 355 343 349 348 358 13 27 11 354 344 344 351 7 359 341 345 1 359 359 356 357 353 355 351 346 345 336 334 337 341 346 351 341 340 335 328 327
303 313 273 290 52 5 77 125 126 87 99 111 103 89 80 71 69 61 54 65 78 88 93 95 93 97 101 100 101 101 100 104 101 89 81 72 65 68 63 60 48 52 46 43 43 46 41 30 30 31 31 20 22 16 1 355 357 341 351 337 343 332 342 341 345 4 24 356 343 332 345 336 342 1 336 344 10 356 1 3 351 354 353 339 345 336 333 339 335 339 347 350 346 338 325 329 325
281 238 313 356 40 325 75 86 161 129 91 119 103 88 82 82 76 69 63 66 63 70 90 96 101 101 106 109 110 113 114 103 96 92 86 80 74 63 65 59 54 50 48 45 38 41 44 36 25 27 27 27 19 8 4 346 346 333 350 335 330 325 328 326 332 347 12 346 337 329 342 336 329 337 335 344 16 0 8 6 349 355 346 342 338 335 335 338 329 336 345 353 337 336 321 321 332
343 10 25 17 7 34 309 147 242 59 99 140 109 99 102 98 90 79 77 74 69 63 60 66 77 102 107 114 114 110 105 103 94 95 91 84 79 72 63 63 61 52 46 43 39 33 40 33 26 23 24 24 17 3 4 342 340 333 334 342 316 331 332 325 333 1 349 340 326 328 342 333 319 322 326 355 26 17 19 3 355 350 347 339 335 339 335 335 329 332 350 355 343 329 325 326 324
43 58 27 353 352 309 187 303 336 89 77 121 122 105 119 130 105 98 111 122 102 97 96 91 80 75 76 74 81 87 103 108 103 92 91 90 84 78 71 67 60 56 49 42 39 31 31 28 26 23 20 17 13 360 352 342 330 329 331 325 323 333 333 322 348 347 344 333 329 330 343 326 323 329 317 15 47 31 24 358 360 352 348 334 341 335 331 326 330 334 356 348 345 331 320 314 324
99 84 25 335 343 311 298 311 298 154 144 175 149 113 98 84 103 113 125 104 96 108 107 106 118 126 123 116 109 107 95 87 97 100 102 97 95 89 82 71 65 57 49 38 40 37 26 22 24 20 8 26 4 358 350 348 341 339 340 342 343 349 343 339 353 343 336 335 333 329 326 320 333 319 316 30 59 43 31 1 11 357 345 339 335 328 325 321 325 349 346 339 332 322 319 319 313
312 343 287 5 309 285 289 283 325 224 178 201 193 198 97 139 129 131 128 130 120 123 119 134 129 132 136 127 136 136 133 121 108 105 81 72 76 88 82 68 61 58 52 24 41 31 19 13 22 13 358 39 3 0 352 352 342 338 340 332 336 350 331 332 339 340 328 323 324 329 322 335 324 326 319 8 49 42 32 23 16 3 340 340 325 328 320 327 335 343 323 325 318 328 328 312 315
343 253 331 335 292 286 282 298 247 283 87 138 176 239 129 145 145 148 155 147 132 123 126 105 119 124 113 115 104 99 108 130 154 137 100 84 72 75 81 72 58 60 48 32 25 22 18 4 6 9 353 36 9 6 349 356 339 332 333 323 346 348 330 328 333 329 326 321 329 329 328 324 332 325 336 345 32 42 25 43 14 5 350 332 324 321 319 325 332 313 315 325 334 323 315 316 305
270 308 324 287 258 273 278 258 248 230 127 134 9 326 88 123 145 157 172 152 148 143 133 168 143 136 141 149 136 121 114 77 49 23 82 90 93 71 65 66 75 58 77 64 5 30 8 6 351 354 2 19 2 17 352 347 337 330 326 324 348 328 327 328 324 330 325 320 333 318 328 328 336 331 334 324 15 23 34 28 15 6 344 328 321 324 327 325 320 323 331 326 319 313 311 300 298
296 310 295 263 187 234 232 233 239 258 105 8 0 351 97 79 157 187 222 118 117 157 165 176 179 167 171 164 167 176 174 163 88 271 183 186 194 136 132 135 135 135 69 31 22 41 349 23 340 338 348 4 1 15 345 339 332 332 321 328 344 334 336 327 322 322 324 320 326 316 326 336 327 333 309 336 3 19 36 16 19 355 336 327 325 331 324 321 326 325 315 314 313 309 296 291 292
285 311 290 279 173 201 226 230 249 283 96 3 5 341 53 130 122 328 166 219 171 299 143 151 166 193 198 188 201 217 256 293 187 242 273 251 139 153 148 157 155 140 82 84 31 20 349 339 328 319 320 353 8 355 354 327 336 325 314 326 350 334 328 324 322 321 323 328 321 323 331 327 333 312 320 331 349 16 24 15 6 344 335 329 328 322 321 322 318 311 313 308 303 299 302 299 298
288 317 331 321 82 235 259 254 214 324 76 195 34 15 320 159 182 166 93 156 237 236 263 166 185 204 205 199 211 202 240 239 250 264 282 339 350 43 130 153 149 166 98 57 13 20 303 301 317 315 308 334 4 333 3 332 336 323 306 316 343 335 336 330 324 322 324 327 323 329 329 331 322 328 329 319 340 3 18 16 352 344 332 326 325 317 319 316 313 315 309 305 300 300 299 300 292
357 355 358 19 347 19 346 30 9 23 53 334 52 6 10 73 88 128 149 174 88 246 295 134 159 186 198 210 219 231 231 264 302 301 315 326 330 301 137 154 143 174 117 334 325 304 289 316 327 327 310 339 343 0 355 338 327 316 315 312 352 346 341 321 322 317 319 321 323 326 325 321 319 325 317 323 319 347 4 3 342 339 328 321 319 319 313 317 318 309 309 305 302 303 302 299 300
349 12 355 19 14 31 340 349 355 327 323 338 4 3 65 114 231 165 177 140 160 238 357 15 116 182 177 202 235 266 281 262 262 335 342 313 308 290 125 134 143 156 208 223 260 309 318 314 321 325 309 333 347 348 334 325 312 307 304 306 339 350 323 313 315 313 309 316 321 319 315 315 313 313 315 322 318 332 350 347 341 327 319 315 314 313 314 313 313 310 304 305 305 301 302 303 298
310 2 21 69 80 90 284 354 319 285 263 303 9 58 210 245 236 144 141 132 159 136 56 43 14 53 352 5 284 240 237 232 64 10 295 291 303 55 118 126 160 194 225 260 358 323 325 310 317 318 309 319 338 333 326 319 312 309 303 305 326 329 321 307 305 303 310 316 316 308 306 307 310 307 314 310 317 329 339 339 327 318 313 306 305 307 307 306 305 302 302 300 300 303 296 295 295
241 327 57 44 47 333 213 280 296 288 322 322 295 139 1 50 137 136 134 134 167 169 177 186 193 216 189 197 220 230 226 183 141 252 269 331 78 118 116 141 196 199 275 347 324 302 310 305 309 310 310 311 329 324 321 309 304 302 299 300 311 325 307 304 299 302 304 305 302 303 302 303 304 309 307 308 319 326 332 326 318 307 303 305 306 307 307 302 298 297 297 295 292 293 294 289 291
299 7 33 281 236 207 273 292 286 280 276 247 132 160 99 155 203 151 174 166 193 187 203 196 206 208 192 213 231 225 199 203 210 197 277 102 122 135 142 175 177 271 306 306 280 271 289 304 309 311 312 311 310 326 311 304 299 301 296 294 309 316 311 306 302 303 305 301 301 300 304 304 307 308 307 314 314 318 320 315 306 305 307 308 306 300 297 301 304 300 296 292 286 284 283 285 285
313 31 307 287 135 124 110 286 296 1 304 287 349 311 205 124 297 160 181 209 193 195 211 209 216 214 213 226 221 335 317 6 29 332 299 161 156 161 177 166 175 194 213 225 238 232 246 278 302 312 307 308 310 310 309 303 306 300 292 293 301 310 303 300 303 302 301 300 301 306 306 306 302 306 311 304 312 318 313 305 304 304 303 298 300 305 306 303 300 293 291 293 294 291 282 274 272
97 196 274 39 346 357 298 279 339 348 292 294 297 352 287 262 241 157 201 212 208 200 208 209 232 257 306 326 317 299 327 356 310 263 246 219 170 177 189 191 181 232 253 261 250 171 189 288 304 307 301 302 302 299 294 302 298 296 296 296 304 303 300 301 301 300 298 301 305 303 299 298 303 301 302 312 310 306 303 306 304 297 293 298 301 298 294 294 296 294 291 289 292 297 299 298 293
12 290 22 48 181 222 313 72 232 194 271 358 284 359 281 29 81 180 180 180 141 105 298 286 325 295 297 320 335 335 313 262 245 247 248 232 184 147 129 146 180 249 275 271 285 120 347 319 304 297 298 298 301 299 298 303 301 297 296 297 296 298 297 298 297 296 297 300 300 296 299 301 300 306 304 302 299 298 302 301 302 307 308 307 301 300 302 299 299 301 302 299 298 299 294 291 293
352 17 19 353 321 176 152 221 121 190 265 236 285 308 260 114 339 77 119 132 166 196 243 262 335 320 313 315 308 293 271 272 281 305 344 325 67 108 110 120 187 240 250 265 1 47 10 323 299 297 298 298 294 296 303 295 301 295 294 296 298 299 299 298 294 298 299 293 290 294 293 293 301 300 298 297 298 300 300 299 296 293 295 297 299 303 307 307 304 299 297 296 295 292 289 286 286
17 320 66 355 9 14 35 291 78 7 77 267 291 268 276 167 298 118 151 175 174 214 172 221 257 278 325 311 296 297 303 311 308 313 24 355 59 71 96 136 205 259 308 350 18 3 346 315 298 296 294 293 297 296 301 301 295 297 294 298 301 301 297 293 294 293 290 289 291 294 297 302 302 298 299 296 297 298 297 295 294 297 301 307 310 309 304 303 301 299 297 296 293 291 288 286 284